Location: Sungai Anya
(2.6167°N, 114.0500°E)
Time: 19:28:28
(UTC+00:00)

BLOCK DM-SL R/B - Pass Details

Date: 19 October 2021
Orbit: 697 x 35799 km, 0.1° (Epoch: 08 December)

Event Time Altitude Azimuth Distance (km) Brightness Sun altitude
Rises 11:36:36 0° 267° (W) 6,193 9.1 -22.1°
Reaches altitude 10° 11:42:00 10° 265° (W) 3,632 7.6 -23.4°
Maximum altitude 11:48:36 67° 182° (S) 819 3.1 -25.0°
Enters shadow 11:49:01 62° 145° (SE) 826 2.9 -25.1°
